IRIDIUM 126

Last updated on Fri Sep 11 2026 00:03:06 GMT+0000 (Coordinated Universal Time)

1 42809U 17039G 26253.47554099 .00000160 00000+0 49933-4 0 9992 2 42809 86.3990 318.0136 0002377 94.7032 265.4436 14.34217412482177
UTC large
Height (km)
Speed (km/s)
/
Latitude / Longitude
Inclination (degrees)
Orbital Period (minutes)
Azimuth
Elevation
Range (km)
Doppler Factor

Next 0 passes for location: London (51.5072 / 0.1276)

No passes found over London.
IRIDIUM 126